Home > Weather > Weno > Past weeks

Flag for Micronesia Weather for the Past 2 Weeks in Weno, Truk, Micronesia

Now
85 °F

More clouds than sun.


Feels Like: 95 °F
Forecast: 80 / 85 °F
Wind: 15 mph from Northeast

Location: Truk Intl / Moen Island

Current Time: Feb 7, 2016 at 2:57:21 PM

Latest Report: Feb 7, 2016 at 1:55 PM


Visibility: 15 mi

Pressure: 29.79 "Hg

Humidity: 74%

Dew point: 76 °F

Location of WenoLocation

Historic Weather in Weno — Graph

°F

Weno Temperature Yesterday

Maximum temperature yesterday: 86 °F (at 12:50 PM)
Minimum temperature yesterday: 80 °F (at 12:50 AM)
Average temperature yesterday: 83 °F

High & Low Weather Summary for the Past Weeks

 TemperatureHumidityPressure
High87 °F (Jan 23, 12:55 PM)96% (Jan 27, 3:52 PM)29.93 "Hg (Jan 27, 3:52 PM)
Low75 °F (Jan 27, 2:50 PM)16% (Jan 28, 12:51 PM)29.72 "Hg (Feb 6, 2:55 PM)
Average82 °F77%29.85 "Hg
* Reported Jan 23 12:55 PM — Feb 7 12:55 PM, Weno, Weather by CustomWeather, © 2016

Note: Actual official high and low records may vary slightly from our data, if they occured in-between our weather recording intervals... More about our weather records

Advertising

Weno Weather History for the Previous 24 Hours

 ConditionsComfort  
Time TempWeatherWind HumidityBarometerVisibility
12:55 PM
Sun, Feb 7
86 °FBroken clouds.12 mph72%29.83 "Hg15 mi
11:50 AM85 °FMore clouds than sun.13 mph75%29.85 "Hg15 mi
10:50 AM86 °FMore clouds than sun.9 mph75%29.88 "Hg15 mi
9:50 AM82 °FMore clouds than sun.9 mph80%29.90 "Hg15 mi
8:51 AM79 °FMostly cloudy.12 mph88%29.92 "Hg15 mi
7:51 AM80 °FMore clouds than sun.9 mph85%29.90 "Hg15 mi
6:50 AM81 °FScattered showers. Broken clouds.9 mph83%29.86 "Hg15 mi
5:51 AM82 °FPartly cloudy.12 mph79%29.83 "Hg15 mi
4:50 AM82 °FPassing clouds.12 mph80%29.82 "Hg15 mi
3:50 AM82 °FPassing clouds.8 mph81%29.80 "Hg15 mi
2:50 AM82 °FPassing clouds.8 mph79%29.79 "Hg15 mi
1:50 AM82 °FPassing clouds.12 mph78%29.81 "Hg15 mi
12:50 AM82 °FPassing clouds.9 mph77%29.82 "Hg15 mi
11:50 PM
Sat, Feb 6
82 °FPassing clouds.12 mph76%29.83 "Hg15 mi
10:50 PM82 °FPassing clouds.12 mph77%29.83 "Hg15 mi
9:50 PM82 °FPassing clouds.10 mph77%29.84 "Hg15 mi
8:51 PM82 °FPassing clouds.10 mph77%29.84 "Hg15 mi
7:52 PM82 °FPassing clouds.8 mph75%29.81 "Hg15 mi
6:52 PM82 °FPassing clouds.12 mph77%29.79 "Hg15 mi
5:54 PM83 °FScattered clouds.6 mph76%29.78 "Hg15 mi
4:52 PM85 °FScattered clouds.7 mph73%29.76 "Hg15 mi
3:53 PM85 °FScattered clouds.13 mph73%29.74 "Hg15 mi
2:55 PM86 °FScattered clouds.14 mph70%29.72 "Hg15 mi
Weather by CustomWeather, © 2016

See weather overviewHow to use our weather pages